GW0484 Weather Reports


time (UTC)temp
C
wind
direction
speed
KPH
gust
KPH
rain 1hr
cm
rain 24hr
cm
rain mn
cm
humidity
%
barometer
mb
20260504190408 -17 127 3.2 4.8 0.00 0.00 0.00 1011.3
20260504185906 -17 141 8.0 12.9 0.00 0.00 0.00 1011.3
20260504185403 -17 274 17.7 27.4 0.00 0.00 0.00 1011.5
20260504184858 -17 329 17.7 25.7 0.00 0.00 0.00 1011.3
20260504184354 -17 342 14.5 17.7 0.00 0.00 0.00 1011.5
20260504183850 -17 33 11.3 16.1 0.00 0.00 0.00 1011.4
20260504183348 -17 315 11.3 16.1 0.00 0.00 0.00 1011.4
20260504182845 -17 33 8.0 12.9 0.00 0.00 0.00 1011.2
20260504182343 -17 310 16.1 24.1 0.00 0.00 0.00 1011.2
20260504181839 -17 56 9.7 14.5 0.00 0.00 0.00 1011.3
20260504181337 -17 107 0.0 1.6 0.00 0.00 0.00 1011.2
20260504180836 -17 2 14.5 20.9 0.00 0.00 0.00 1011.2
20260504180334 -17 115 1.6 3.2 0.00 0.00 0.00 1011.2
20260504175832 -17 289 14.5 20.9 0.00 0.00 0.00 1011.4
20260504175328 -17 65 8.0 14.5 0.00 0.00 0.00 1011.5
20260504174826 -17 1 9.7 14.5 0.00 0.00 0.00 1011.5
20260504174324 -17 97 19.3 27.4 0.00 0.00 0.00 1011.5
20260504173820 -17 320 19.3 22.5 0.00 0.00 0.00 1011.4
20260504173317 -17 277 8.0 9.7 0.00 0.00 0.00 1011.4
20260504172814 -17 305 9.7 14.5 0.00 0.00 0.00 1011.4
20260504172311 -17 152 4.8 8.0 0.00 0.00 0.00 1011.6
20260504171807 -17 104 1.6 3.2 0.00 0.00 0.00 1011.4
20260504171304 -17 194 6.4 11.3 0.00 0.00 0.00 1011.4
20260504170801 -17 40 6.4 12.9 0.00 0.00 0.00 1011.6
20260504170258 -17 275 9.7 17.7 0.00 0.00 0.00 1011.3
20260504160216 -17 131 4.8 4.8 0.00 0.00 0.00 1011.4
20260504151144 -17 310 20.9 24.1 0.00 0.00 0.00 1011.8
20260504150641 -17 329 16.1 17.7 0.00 0.00 0.00 1011.6
20260504150138 -17 265 19.3 22.5 0.00 0.00 0.00 1011.8
20260504141107 -17 264 14.5 17.7 0.00 0.00 0.00 1011.8
20260504140604 -17 277 19.3 22.5 0.00 0.00 0.00 1011.7
20260504130528 -17 261 16.1 20.9 0.00 0.00 0.00 1011.7
20260504110415 -17 259 6.4 8.0 0.00 0.00 0.00 1012.2
20260504100332 -17 103 0.0 0.0 0.00 0.00 0.00 1011.8
20260504081726 -17 37 14.5 16.1 0.00 0.00 0.00 1011.3
20260504081222 -17 340 24.1 27.4 0.00 0.00 0.00 1011.1
20260504080718 -17 24 27.4 32.2 0.00 0.00 0.00 1011.0
20260504080215 -17 19 29.0 33.8 0.00 0.00 0.00 1011.0
20260504070142 -17 30 32.2 38.6 0.00 0.00 0.00 1009.3
20260504050531 -17 21 41.8 53.1 0.00 0.00 0.00 1006.4
20260504045525 -17 31 38.6 46.7 0.00 0.00 0.00 1006.3
20260504045020 -17 6 32.2 41.8 0.00 0.00 0.00 1005.9
20260504044518 -17 12 20.9 22.5 0.00 0.00 0.00 1005.5
20260504044015 -17 28 16.1 17.7 0.00 0.00 0.00 1005.4
20260504043512 -17 11 14.5 14.5 0.00 0.00 0.00 1005.3
20260504043009 -17 359 17.7 20.9 0.00 0.00 0.00 1004.9
20260504042506 -17 29 17.7 17.7 0.00 0.00 0.00 1005.1
20260504042003 -17 20 17.7 20.9 0.00 0.00 0.00 1004.7
20260504041459 -17 16 19.3 22.5 0.00 0.00 0.00 1004.9
20260504040955 -17 13 20.9 22.5 0.00 0.00 0.00 1004.6
20260504040453 -17 30 20.9 24.1 0.00 0.00 0.00 1004.6
20260504035948 -17 22 19.3 22.5 0.00 0.00 0.00 1004.3
20260504035446 -17 20 20.9 24.1 0.00 0.00 0.00 1004.5
20260504034942 -17 27 19.3 22.5 0.00 0.00 0.00 1004.4
20260504034440 -17 18 17.7 24.1 0.00 0.00 0.00 1004.2
20260504033937 -17 24 22.5 25.7 0.00 0.00 0.00 1003.9
20260504033435 -17 20 25.7 29.0 0.00 0.00 0.00 1003.7
20260504032932 -17 20 30.6 35.4 0.00 0.00 0.00 1003.7
20260504032429 -17 21 24.1 27.4 0.00 0.00 0.00 1003.7
20260504031925 -17 13 25.7 32.2 0.00 0.00 0.00 1003.7
20260504031422 -17 7 20.9 24.1 0.00 0.00 0.00 1003.6
20260504030919 -17 30 20.9 24.1 0.00 0.00 0.00 1003.4
20260504030416 -17 11 24.1 27.4 0.00 0.00 0.00 1003.3
20260504025912 -17 26 17.7 22.5 0.00 0.00 0.00 1003.2
20260504025409 -17 18 16.1 17.7 0.00 0.00 0.00 1003.3
20260504024906 -17 29 19.3 20.9 0.00 0.00 0.00 1002.9
20260504024403 -17 15 11.3 12.9 0.00 0.00 0.00 1003.0
20260504023900 -17 8 19.3 22.5 0.00 0.00 0.00 1003.2
20260504023356 -17 13 11.3 12.9 0.00 0.00 0.00 1003.2
20260504022852 -17 53 9.7 12.9 0.00 0.00 0.00 1002.9
20260504022349 -17 3 8.0 9.7 0.00 0.00 0.00 1003.0
20260504021845 -17 27 12.9 16.1 0.00 0.00 0.00 1002.9
20260504021342 -17 6 11.3 12.9 0.00 0.00 0.00 1002.7
20260504020840 -17 349 8.0 11.3 0.00 0.00 0.00 1002.9
20260504020336 -17 25 4.8 9.7 0.00 0.00 0.00 1003.2
20260504015832 -17 354 9.7 16.1 0.00 0.00 0.00 1003.0
20260504015328 -17 333 8.0 9.7 0.00 0.00 0.00 1002.7
20260504014825 -17 25 14.5 17.7 0.00 0.00 0.00 1003.1
20260504014321 -17 18 14.5 16.1 0.00 0.00 0.00 1003.1
20260504013819 -17 25 9.7 11.3 0.00 0.00 0.00 1003.1
20260504013316 -17 3 11.3 14.5 0.00 0.00 0.00 1003.0
20260504012813 -17 346 8.0 11.3 0.00 0.00 0.00 1002.9
20260504012311 -17 334 8.0 14.5 0.00 0.00 0.00 1003.1
20260504011808 -17 24 16.1 20.9 0.00 0.00 0.00 1003.0
20260504011304 -17 23 4.8 8.0 0.00 0.00 0.00 1002.8
20260504010800 -17 13 6.4 9.7 0.00 0.00 0.00 1003.1
20260504010256 -17 10 8.0 17.7 0.00 0.00 0.00 1003.0
20260504005753 -17 34 16.1 20.9 0.00 0.00 0.00 1003.1
20260504005250 -17 18 12.9 16.1 0.00 0.00 0.00 1003.2
20260504004747 -17 334 11.3 22.5 0.00 0.00 0.00 1003.1
20260504004245 -17 54 14.5 17.7 0.00 0.00 0.00 1003.0
20260504003741 -17 268 9.7 17.7 0.00 0.00 0.00 1003.1
20260504003238 -17 56 4.8 9.7 0.00 0.00 0.00 1003.3
20260504002734 -17 14 4.8 8.0 0.00 0.00 0.00 1003.4
20260504002231 -17 4 12.9 17.7 0.00 0.00 0.00 1003.1
20260504001729 -17 334 8.0 16.1 0.00 0.00 0.00 1003.1
20260504001226 -17 133 0.0 1.6 0.00 0.00 0.00 1003.4
20260504000723 -17 358 4.8 9.7 0.00 0.00 0.00 1003.4
20260504000219 -17 354 11.3 14.5 0.00 0.00 0.00 1003.5
20260503235718 -17 352 4.8 9.7 0.00 0.00 0.00 1003.5
20260503235215 -17 15 12.9 17.7 0.00 0.00 0.00 1003.5
20260503234713 -17 75 3.2 3.2 0.00 0.00 0.00 1003.6
20260503234210 -17 237 9.7 11.3 0.00 0.00 0.00 1003.5
20260503233707 -17 299 14.5 20.9 0.00 0.00 0.00 1003.7
20260503233203 -17 213 8.0 12.9 0.00 0.00 0.00 1003.5
20260503232700 -17 350 8.0 11.3 0.00 0.00 0.00 1003.7
20260503232157 -17 346 8.0 12.9 0.00 0.00 0.00 1003.4
20260503231655 -17 313 6.4 8.0 0.00 0.00 0.00 1003.6
20260503231151 -17 358 3.2 8.0 0.00 0.00 0.00 1003.6
20260503230648 -17 268 4.8 4.8 0.00 0.00 0.00 1003.9
20260503230145 -17 334 9.7 14.5 0.00 0.00 0.00 1003.7
20260503225642 -17 79 11.3 16.1 0.00 0.00 0.00 1003.7
20260503225142 -17 336 17.7 22.5 0.00 0.00 0.00 1003.9
20260503224640 -17 63 11.3 14.5 0.00 0.00 0.00 1003.9
20260503224138 -17 214 9.7 16.1 0.00 0.00 0.00 1003.9
20260503223636 -17 290 16.1 20.9 0.00 0.00 0.00 1004.1
20260503223132 -17 119 4.8 9.7 0.00 0.00 0.00 1004.0
20260503222629 -17 248 19.3 20.9 0.00 0.00 0.00 1004.0
20260503222127 -17 61 4.8 9.7 0.00 0.00 0.00 1004.3
20260503221625 -17 319 14.5 22.5 0.00 0.00 0.00 1004.0
20260503221122 -17 22 11.3 14.5 0.00 0.00 0.00 1004.3
20260503220619 -17 309 17.7 25.7 0.00 0.00 0.00 1004.4
20260503220115 -17 21 11.3 14.5 0.00 0.00 0.00 1004.3
20260503215612 -17 223 22.5 25.7 0.00 0.00 0.00 1004.5
20260503215109 -17 320 24.1 25.7 0.00 0.00 0.00 1004.6
20260503214608 -17 315 20.9 27.4 0.00 0.00 0.00 1004.7
20260503214103 -17 303 14.5 14.5 0.00 0.00 0.00 1004.6
20260503213603 -17 300 16.1 17.7 0.00 0.00 0.00 1004.7
20260503213058 -17 282 9.7 14.5 0.00 0.00 0.00 1004.8
20260503212556 -17 2 11.3 12.9 0.00 0.00 0.00 1005.2
20260503212053 -17 243 14.5 22.5 0.00 0.00 0.00 1005.4
20260503211550 -17 311 27.4 32.2 0.00 0.00 0.00 1005.2
20260503211045 -17 304 16.1 20.9 0.00 0.00 0.00 1005.3
20260503210543 -17 262 16.1 17.7 0.00 0.00 0.00 1005.3
20260503210038 -17 342 9.7 12.9 0.00 0.00 0.00 1005.6
20260503205535 -17 284 20.9 25.7 0.00 0.00 0.00 1005.3
20260503205032 -17 298 14.5 14.5 0.00 0.00 0.00 1005.5
20260503204529 -17 18 8.0 9.7 0.00 0.00 0.00 1005.5
20260503204026 -17 307 16.1 22.5 0.00 0.00 0.00 1005.7
20260503203523 -17 44 9.7 12.9 0.00 0.00 0.00 1005.7
20260503203020 -17 357 6.4 14.5 0.00 0.00 0.00 1005.8
20260503202518 -17 49 9.7 12.9 0.00 0.00 0.00 1006.0
20260503202016 -17 321 20.9 24.1 0.00 0.00 0.00 1006.3
20260503201514 -17 39 8.0 9.7 0.00 0.00 0.00 1006.1
20260503201010 -17 312 27.4 35.4 0.00 0.00 0.00 1006.1
20260503200507 -17 108 3.2 3.2 0.00 0.00 0.00 1006.0
20260503200004 -17 318 17.7 22.5 0.00 0.00 0.00 1005.9
20260503195501 -17 253 25.7 32.2 0.00 0.00 0.00 1006.0
20260503194957 -17 259 16.1 17.7 0.00 0.00 0.00 1006.3
20260503194455 -17 284 32.2 38.6 0.00 0.00 0.00 1006.1
20260503193949 -17 271 14.5 16.1 0.00 0.00 0.00 1006.5
20260503193445 -17 310 22.5 27.4 0.00 0.00 0.00 1006.3
20260503192941 -17 245 11.3 12.9 0.00 0.00 0.00 1006.5
20260503192437 -17 255 17.7 20.9 0.00 0.00 0.00 1006.6
20260503191933 -17 282 16.1 17.7 0.00 0.00 0.00 1006.5
20260503191431 -17 326 12.9 14.5 0.00 0.00 0.00 1006.7
20260503190927 -17 293 11.3 20.9 0.00 0.00 0.00 1006.9